sat.trackr.live / text

‹ back to catalog

STARLINK-32713

NORAD 62487 · 2025-003A

PAYLOAD ACTIVE UNKNOWN

§ Identity

Operator
Country
US
Launch date
2025-01-06
Launch site
AFETR
Launch vehicle
Mass (kg)
RCS (m²)

Purposes: comms

External: N2YO · Heavens-Above · Gunter

§ Orbital elements

Epoch: 2026-05-25T05:02:55.039200Z

Period
94.27 min
Inclination
42.9968°
Eccentricity
0.0000450
Mean motion
15.27600574 rev/d
Perigee alt
482.7 km
Apogee alt
483.3 km
Semi-major
6,861.1 km
B*
8.2031e-4
RAAN
216.8934°
Arg perigee
279.9268°
Mean anomaly
80.1532°
Rev number
7,835

§ Raw data

STARLINK-327131 62487U 25003A   26145.21035925  .00022394  00000+0  82031-3 0  99982 62487  42.9968 216.8934 0000450 279.9268  80.1532 15.27600574 78351

JSON: /api/v1/satellites/62487 · /tle

For live sub-satellite position, see the globe view (requires WebGL).

§ Visibility from observer

Set your observer location to see the next 7 days of passes ≥ 10°. The values pass through the URL so the page stays shareable.

No JS? Fill the form by hand. The geolocation button needs JavaScript.